Location: ??????
(38.0677°N, 22.9870°E)
Time: 16:03:44
(UTC+00:00)

CZ-2C R/B - Pass Details

Date: 09 August 2024
Orbit: 666 x 777 km, 98.4° (Epoch: 09 September)

Event Time Altitude Azimuth Distance (km) Brightness Sun altitude
Rises 02:56:20 0° 1° (N) 3,261 6.2 -8.3°
Reaches altitude 10° 02:58:53 10° 351° (N) 2,334 5.3 -7.9°
Maximum altitude 03:03:18 30° 292° (WNW) 1,381 3.5 -7.1°
Drops below altitude 10° 03:07:42 10° 233° (SW) 2,315 4.3 -6.3°
Enters shadow 03:08:40 - 228° (SW) 2,651 4.7 -6.2°
